Location: Red Deer
(52.2681°N, 113.8112°W)
Time: 19:25:18
(UTC-07:00)

Envisat - Visible Passes

Search period start: 05 December 2021 00:00
Search period end: 15 December 2021 00:00
Orbit: 764 x 766 km, 98.2° (Epoch: 05 December)

Date Brightness Start Highest point End Pass type
(mag) Time Alt. Az. Time Alt. Az. Time Alt. Az.
05 Dec 5.2 04:36:51 10° NE 04:40:51 23° E 04:44:48 10° SE visible
05 Dec 2.9 06:15:16 10° N 06:20:18 63° WNW 06:25:19 10° SSW visible
05 Dec 5.2 17:36:31 10° SSW 17:40:51 28° W 17:45:12 10° NW visible
06 Dec 6.0 04:01:50 10° ENE 04:03:27 11° E 04:05:04 10° ESE visible
06 Dec 3.2 05:38:21 10° NNE 05:43:27 69° ESE 05:48:30 10° S visible
06 Dec 4.0 07:18:05 10° N 07:22:02 23° WNW 07:25:58 10° WSW visible
06 Dec 4.0 16:58:46 10° S 17:03:43 54° W 17:08:44 10° NNW visible
07 Dec 4.5 05:01:44 10° NNE 05:06:24 35° E 05:11:02 10° SSE visible
07 Dec 3.3 06:40:45 10° N 06:45:29 41° WNW 06:50:13 10° SW visible
07 Dec 5.8 18:03:04 10° SW 18:06:27 18° W 18:09:52 10° NW visible
08 Dec 5.5 04:25:37 10° NE 04:29:09 19° E 04:32:40 10° SE visible
08 Dec 2.8 06:03:40 10° NNE 06:08:46 77° WNW 06:13:50 10° SSW visible
08 Dec 4.4 07:44:00 10° NNW 07:47:01 16° NW 07:50:00 10° W visible
08 Dec 4.9 17:24:36 10° SSW 17:29:11 34° W 17:33:49 10° NNW visible
09 Dec 3.6 05:26:50 10° NNE 05:31:51 56° E 05:36:50 10° S visible
09 Dec 3.8 07:06:21 10° N 07:10:35 27° WNW 07:14:49 10° WSW visible
09 Dec 6.3 18:30:55 10° W 18:32:09 11° W 18:33:25 10° WNW visible
10 Dec 4.8 04:50:19 10° NNE 04:54:45 29° E 04:59:08 10° SSE visible
10 Dec 3.1 06:29:06 10° N 06:33:59 49° WNW 06:38:52 10° SW visible
10 Dec 5.7 17:50:53 10° SW 17:54:44 22° W 17:58:38 10° NW visible
11 Dec 5.7 04:14:31 10° NE 04:17:26 15° E 04:20:20 10° ESE visible
11 Dec 2.9 05:52:05 10° NNE 05:57:13 88° ESE 06:02:18 10° SSW visible
11 Dec 4.3 07:32:08 10° NNW 07:35:36 19° NW 07:39:04 10° W visible
11 Dec 4.5 17:12:46 10° SSW 17:17:32 41° W 17:22:22 10° NNW visible
12 Dec 4.0 05:15:20 10° NNE 05:20:14 46° E 05:25:06 10° S visible
12 Dec 3.6 06:54:38 10° N 06:59:08 32° WNW 07:03:36 10° SW visible
12 Dec 6.0 18:17:55 10° WSW 18:20:25 14° W 18:22:55 10° NW visible
13 Dec 5.1 04:38:58 10° NE 04:43:04 24° E 04:47:08 10° SE visible
13 Dec 2.9 06:17:28 10° N 06:22:29 60° WNW 06:27:27 10° SSW visible
13 Dec 4.6 07:58:19 10° NNW 08:00:32 13° NW 08:02:45 10° WNW visible
13 Dec 5.3 17:38:49 10° SSW 17:43:04 26° W 17:47:20 10° NW visible
14 Dec 6.0 04:03:40 10° ENE 04:05:41 12° E 04:07:42 10° ESE visible
14 Dec 3.1 05:40:32 10° NNE 05:45:38 73° ESE 05:50:43 10° S visible
14 Dec 4.1 07:20:20 10° N 07:24:11 22° WNW 07:28:01 10° WSW visible
14 Dec 4.1 17:01:00 10° S 17:05:56 50° W 17:10:54 10° NNW visible
